Miscellaneous Local Product
Issued by NWS North Platte, NE

Home | Current Version | Previous Version | Text Only | Print | Product List | Glossary On
Versions: 1 2 3 4 5 6 7 8 9 10 11 12 13 14 15 16 17 18 19 20 21 22 23 24 25 26 27 28 29 30 31 32 33 34 35 36 37 38 39 40 41 42 43 44 45 46 47 48 49 50
000
AXUS43 KLBF 272310
MISLBF


WESTERN AND NORTH CENTRAL NEBRASKA HOURLY WEATHER ROUNDUP
NATIONAL WEATHER SERVICE NORTH PLATTE NE
600 PM CDT WED JUL 27 2016

NOTE: "FAIR" INDICATES FEW OR NO CLOUDS BELOW 12,000 FEET WITH NO
SIGNIFICANT WEATHER AND/OR OBSTRUCTIONS TO VISIBILITY.

NOTE: STATIONS NOT REPORTING VARIABLES SUCH AS SKY/WEATHER OR
PRESSURE ARE PROVIDED BY RAWS AND APRS NETWORKS AND ARE NOT UNDER
NATIONAL WEATHER SERVICE QUALITY CONTROL.

...OBSERVATIONS IN AND NEAR THE EASTERN PANHANDLE OF NEBRASKA...

CITY           SKY/WX    TMP DP  RH WIND       PRES   REMARKS
PINE RIDGE     SUNNY     82  61  48 NE8       30.09F
CHADRON        SUNNY     84  57  39 NE15      30.08F
ALLIANCE       SUNNY     86  53  32 NE15      30.10F
SIDNEY         MOSUNNY   87  58  37 SE10      30.12S
CRESCENT LAKE    N/A     83  60  45 E6          N/A
$$

...OBSERVATIONS IN NORTHERN NEBRASKA AND FAR SOUTHERN SOUTH DAKOTA...

CITY           SKY/WX    TMP DP  RH WIND       PRES   REMARKS
WINNER         LGT RAIN  77  66  68 E9        30.01F
VALENTINE      PTSUNNY   77  60  55 MISG      30.06F
THEDFORD       MOSUNNY   87  62  44 N14G25    30.07S
AINSWORTH      CLOUDY    64  62  93 E12       30.08F
O`NEILL        MOSUNNY   80  67  63 CALM      30.03R
ORD            SUNNY     86  62  44 CALM      30.00S
BROKEN BOW     MOSUNNY   83  64  52 CALM      30.03S
VALENTINE NWR    N/A     74  59  59 NE13G23     N/A
BUTTE            N/A     79  67  67 CALM        N/A
HALSEY           N/A     86  63  46 CALM        N/A
EWING            N/A     81  68  64 CALM        N/A
$$

...OBSERVATIONS IN SOUTHWEST NEBRASKA AND FAR NORTHEAST COLORADO...

CITY           SKY/WX    TMP DP  RH WIND       PRES   REMARKS
WRAY           FAIR      91  54  27 S8        30.05F
HOLYOKE        FAIR      88  63  42 E7        30.08F
IMPERIAL       SUNNY     88  57  34 SE3       30.05F
OGALLALA       SUNNY     87  53  31 E8        30.07F
NORTH PLATTE   SUNNY     88  60  38 CALM      30.05R
MCCOOK         SUNNY     88  61  40 SE9       30.02S
LEXINGTON      CLOUDY    83  68  61 E5        30.04R
STAPLETON        N/A     88  68  51 CALM        N/A  HX  91
GOTHENBURG       N/A     85  64  48 E3          N/A
CALLAWAY         N/A     87  67  51 CALM        N/A  HX  90
$$

...OBSERVATIONS IN CENTRAL LINCOLN COUNTY AREA...

CITY           SKY/WX    TMP DP  RH WIND       PRES   REMARKS
N.P. AIRPORT   SUNNY     88  60  38 CALM      30.05R
N.P. DOWNTOWN    N/A     86  62  44 N5          N/A
N.P. SOUTHEAST   N/A     87  63  44 CALM        N/A
N.P. HILLCREST   N/A     85  61  44 NE6         N/A
$$

...SOME OBSERVATIONS FROM AROUND THE REGION...

CITY           SKY/WX    TMP DP  RH WIND       PRES   REMARKS
DENVER         MOSUNNY   92  45  19 SE6       30.12F
LARAMIE        CLOUDY    86  24  10 N16G23    30.27S
CHEYENNE       CLOUDY    78  54  43 E10       30.22S
SCOTTSBLUFF    SUNNY     89  53  29 E9        30.08F
RAPID CITY     SUNNY     79  61  53 NE12      30.11F
BISMARCK       CLOUDY    76  60  57 E8        30.08F
PIERRE         CLOUDY    85  59  41 NE9       30.02S
SIOUX FALLS    MOSUNNY   81  64  56 N12       29.98F
OMAHA          MOSUNNY   86  69  56 N6        29.93F HX  90
GRAND ISLAND   SUNNY     87  62  43 E6        30.00R
KANSAS CITY    PTSUNNY   88  71  57 NW5       29.93F HX  94
WICHITA        PTSUNNY   91  68  46 NE8       29.94R HX  95
OKLAHOMA CITY  PTSUNNY   93  71  48 CALM      29.90F THUNDER HX 100
DALLAS         PTSUNNY   90  72  55 E8        29.87F HX  97
AMARILLO       SUNNY     88  61  40 SW9       30.03F
DODGE CITY     TSTM      75  68  78 SE21G35   30.04R
HAYS           CLOUDY    91  64  40 CALM      29.97F HX  93
GOODLAND       SUNNY     91  59  33 SE10      30.05S HX  90
$$




USA.gov is the U.S. government's official web portal to all federal, state and local government web resources and services.